Météo par heure à Alitub

Ce jour, 25 Octobre, Dimanche

Heure Température Précipitation Vent Pression Humidité
00:00 +14°C° 0 mm 3 m/s 760 mmHg 95%
01:00 +14°C° 0 mm 3 m/s 760 mmHg 95%
02:00 +16°C° 0 mm 3 m/s 760 mmHg 96%
03:00 +16°C° 0 mm 3 m/s 760 mmHg 96%
04:00 +16°C° 0 mm 3 m/s 760 mmHg 96%
05:00 +16°C° 0 mm 3 m/s 760 mmHg 96%
06:00 +17°C° 0 mm 3 m/s 760 mmHg 95%
07:00 +17°C° 0 mm 3 m/s 760 mmHg 87%
08:00 +17°C° 0 mm 3 m/s 761 mmHg 79%
09:00 +18°C° 0 mm 4 m/s 761 mmHg 70%
10:00 +19°C° 0 mm 3 m/s 761 mmHg 61%
11:00 +20°C° 0 mm 3 m/s 761 mmHg 52%
12:00 +21°C° 0 mm 3 m/s 761 mmHg 42%
13:00 +21°C° 0 mm 3 m/s 761 mmHg 43%
14:00 +21°C° 0 mm 3 m/s 761 mmHg 43%
15:00 +22°C° 0 mm 3 m/s 761 mmHg 43%
16:00 +21°C° 0 mm 3 m/s 762 mmHg 47%
17:00 +20°C° 0 mm 3 m/s 762 mmHg 51%
18:00 +19°C° 0 mm 2 m/s 762 mmHg 55%
19:00 +18°C° 0 mm 2 m/s 763 mmHg 57%
20:00 +17°C° 0 mm 3 m/s 763 mmHg 60%
21:00 +16°C° 0 mm 3 m/s 764 mmHg 62%
22:00 +14°C° 0 mm 3 m/s 764 mmHg 64%
23:00 +14°C° 0 mm 3 m/s 764 mmHg 66%

Demain, 26 Octobre, Lundi

Heure Température Précipitation Vent Pression Humidité
00:00 +13°C° 0 mm 3 m/s 764 mmHg 69%
01:00 +12°C° 0 mm 3 m/s 764 mmHg 70%
02:00 +12°C° 0 mm 3 m/s 765 mmHg 71%
03:00 +11°C° 0 mm 4 m/s 765 mmHg 73%
04:00 +11°C° 0 mm 4 m/s 765 mmHg 74%
05:00 +10°C° 0 mm 4 m/s 765 mmHg 75%
06:00 +10°C° 0 mm 4 m/s 765 mmHg 76%
07:00 +11°C° 0 mm 4 m/s 766 mmHg 72%
08:00 +11°C° 0 mm 4 m/s 766 mmHg 69%
09:00 +12°C° 0 mm 5 m/s 766 mmHg 65%
10:00 +13°C° 0 mm 5 m/s 766 mmHg 59%
11:00 +15°C° 0 mm 5 m/s 766 mmHg 53%
12:00 +16°C° 0 mm 5 m/s 765 mmHg 48%
13:00 +16°C° 0 mm 5 m/s 765 mmHg 46%
14:00 +17°C° 0 mm 5 m/s 765 mmHg 44%
15:00 +17°C° 0 mm 5 m/s 765 mmHg 42%
16:00 +17°C° 0 mm 4 m/s 765 mmHg 45%
17:00 +15°C° 0 mm 4 m/s 765 mmHg 48%
18:00 +14°C° 0 mm 4 m/s 765 mmHg 50%
19:00 +13°C° 0 mm 4 m/s 765 mmHg 52%
20:00 +13°C° 0 mm 4 m/s 765 mmHg 54%
21:00 +12°C° 0 mm 5 m/s 765 mmHg 56%
22:00 +12°C° 0 mm 5 m/s 766 mmHg 57%
23:00 +12°C° 0 mm 5 m/s 766 mmHg 59%

Après-demain, 27 Octobre, Mardi

Heure Température Précipitation Vent Pression Humidité
00:00 +10°C° 0 mm 5 m/s 766 mmHg 60%
01:00 +10°C° 0 mm 5 m/s 766 mmHg 61%
02:00 +10°C° 0 mm 5 m/s 766 mmHg 62%
03:00 +9°C° 0 mm 5 m/s 766 mmHg 63%
04:00 +9°C° 0 mm 5 m/s 766 mmHg 64%
05:00 +9°C° 0 mm 5 m/s 766 mmHg 65%
06:00 +9°C° 0 mm 5 m/s 766 mmHg 67%
07:00 +9°C° 0 mm 6 m/s 766 mmHg 63%
08:00 +10°C° 0 mm 6 m/s 766 mmHg 59%
09:00 +11°C° 0 mm 6 m/s 766 mmHg 55%
10:00 +12°C° 0 mm 7 m/s 767 mmHg 50%
11:00 +15°C° 0 mm 7 m/s 767 mmHg 44%
12:00 +16°C° 0 mm 7 m/s 767 mmHg 39%
13:00 +16°C° 0 mm 7 m/s 767 mmHg 38%
14:00 +16°C° 0 mm 7 m/s 766 mmHg 38%
15:00 +17°C° 0 mm 7 m/s 766 mmHg 37%
16:00 +15°C° 0 mm 7 m/s 767 mmHg 41%
17:00 +14°C° 0 mm 6 m/s 767 mmHg 45%
18:00 +13°C° 0 mm 6 m/s 767 mmHg 49%
19:00 +13°C° 0 mm 6 m/s 767 mmHg 51%
20:00 +11°C° 0 mm 6 m/s 767 mmHg 53%
21:00 +11°C° 0 mm 7 m/s 767 mmHg 54%
22:00 +10°C° 0 mm 7 m/s 767 mmHg 54%
23:00 +10°C° 0 mm 7 m/s 767 mmHg 54%

28 Octobre, Mercredi

Heure Température Précipitation Vent Pression Humidité
00:00 +10°C° 0 mm 7 m/s 767 mmHg 55%
01:00 +10°C° 0 mm 7 m/s 767 mmHg 56%
02:00 +9°C° 0 mm 7 m/s 767 mmHg 57%
03:00 +9°C° 0 mm 7 m/s 767 mmHg 58%
04:00 +9°C° 0 mm 8 m/s 767 mmHg 60%
05:00 +7°C° 0 mm 8 m/s 767 mmHg 62%
06:00 +7°C° 0 mm 8 m/s 767 mmHg 64%
07:00 +7°C° 0 mm 8 m/s 767 mmHg 64%
08:00 +8°C° 0 mm 9 m/s 767 mmHg 63%
09:00 +8°C° 0 mm 9 m/s 768 mmHg 63%
10:00 +10°C° 0 mm 9 m/s 767 mmHg 59%
11:00 +11°C° 0 mm 9 m/s 767 mmHg 55%
12:00 +12°C° 0 mm 9 m/s 767 mmHg 50%
13:00 +13°C° 0 mm 9 m/s 767 mmHg 48%
14:00 +13°C° 0 mm 9 m/s 767 mmHg 46%
15:00 +15°C° 0 mm 9 m/s 767 mmHg 44%
16:00 +13°C° 0 mm 8 m/s 767 mmHg 45%
17:00 +12°C° 0 mm 8 m/s 767 mmHg 46%
18:00 +11°C° 0 mm 7 m/s 767 mmHg 47%
19:00 +11°C° 0 mm 7 m/s 767 mmHg 46%
20:00 +11°C° 0 mm 7 m/s 767 mmHg 45%
21:00 +10°C° 0 mm 7 m/s 766 mmHg 44%
22:00 +10°C° 0 mm 7 m/s 766 mmHg 47%
23:00 +9°C° 0 mm 7 m/s 766 mmHg 50%

29 Octobre, Jeudi

Heure Température Précipitation Vent Pression Humidité
00:00 +8°C° 0 mm 7 m/s 766 mmHg 53%
01:00 +8°C° 0 mm 7 m/s 766 mmHg 57%
02:00 +7°C° 0 mm 8 m/s 765 mmHg 61%
03:00 +7°C° 0 mm 8 m/s 765 mmHg 65%
04:00 +8°C° 0 mm 7 m/s 765 mmHg 65%
05:00 +8°C° 0 mm 7 m/s 765 mmHg 64%
06:00 +8°C° 0 mm 7 m/s 765 mmHg 64%
07:00 +7°C° 0 mm 8 m/s 765 mmHg 62%
08:00 +9°C° 0 mm 8 m/s 765 mmHg 61%
09:00 +10°C° 0 mm 8 m/s 765 mmHg 59%
10:00 +11°C° 0 mm 8 m/s 765 mmHg 56%
11:00 +13°C° 0 mm 8 m/s 765 mmHg 54%
12:00 +15°C° 0 mm 8 m/s 765 mmHg 51%
13:00 +16°C° 0 mm 8 m/s 764 mmHg 50%
14:00 +16°C° 0 mm 8 m/s 764 mmHg 49%
15:00 +17°C° 0 mm 8 m/s 764 mmHg 48%
16:00 +16°C° 0 mm 7 m/s 764 mmHg 50%
17:00 +16°C° 0 mm 6 m/s 764 mmHg 52%
18:00 +15°C° 0 mm 6 m/s 764 mmHg 54%
19:00 +15°C° 0 mm 6 m/s 764 mmHg 55%
20:00 +14°C° 0 mm 6 m/s 764 mmHg 56%
21:00 +14°C° 0 mm 5 m/s 764 mmHg 57%
22:00 +13°C° 0 mm 5 m/s 764 mmHg 60%
23:00 +13°C° 0 mm 6 m/s 764 mmHg 64%

30 Octobre, Vendredi

Heure Température Précipitation Vent Pression Humidité
00:00 +13°C° 0 mm 6 m/s 764 mmHg 67%
01:00 +12°C° 0 mm 5 m/s 764 mmHg 70%
02:00 +12°C° 0 mm 5 m/s 764 mmHg 73%
03:00 +12°C° 0 mm 5 m/s 764 mmHg 76%
04:00 +12°C° 0 mm 5 m/s 764 mmHg 75%
05:00 +12°C° 0 mm 5 m/s 764 mmHg 75%
06:00 +11°C° 0 mm 6 m/s 764 mmHg 75%
07:00 +11°C° 0 mm 6 m/s 764 mmHg 73%
08:00 +13°C° 0 mm 6 m/s 764 mmHg 70%
09:00 +13°C° 0 mm 6 m/s 764 mmHg 68%
10:00 +14°C° 0 mm 5 m/s 764 mmHg 65%
11:00 +15°C° 0 mm 5 m/s 763 mmHg 62%
12:00 +16°C° 0 mm 5 m/s 763 mmHg 60%
13:00 +17°C° 0 mm 5 m/s 763 mmHg 59%
14:00 +18°C° 0 mm 4 m/s 763 mmHg 58%
15:00 +19°C° 0 mm 4 m/s 763 mmHg 58%
16:00 +18°C° 0 mm 4 m/s 763 mmHg 61%
17:00 +17°C° 0 mm 3 m/s 763 mmHg 65%
18:00 +16°C° 0 mm 3 m/s 763 mmHg 69%
19:00 +16°C° 0.2 mm 3 m/s 763 mmHg 71%
20:00 +16°C° 0.2 mm 3 m/s 763 mmHg 73%
21:00 +16°C° 0.2 mm 3 m/s 763 mmHg 76%
22:00 +15°C° 0.2 mm 2 m/s 763 mmHg 79%
23:00 +15°C° 0.2 mm 2 m/s 763 mmHg 81%
Voir plus

Nous avons besoin de votre consentement

Meteoprog et ses fournisseurs de services peuvent stocker et accéder à des données personnelles telles que des cookies, des identifiants d'appareils ou d'autres technologies similaires sur votre appareil et traiter ces données pour personnaliser le contenu et les publicités, ainsi que pour fournir des fonctionnalités de médias sociaux et analyser le trafic.

  • Stocker et/ou accéder à des informations sur votre appareil

    Des cookies, des identifiants d'appareils ou d'autres informations peuvent être stockés ou accessibles sur votre appareil aux fins indiquées ci-dessus.

  • Annonces et contenus personnalisés, mesure des annonces et des contenus, connaissance de l'audience et développement de produits

    Les annonces et le contenu peuvent être personnalisés en fonction d'un profil. D'autres données peuvent être ajoutées pour mieux personnaliser les annonces et le contenu. Les performances des publicités et du contenu peuvent être mesurées. Il est possible d'obtenir des informations sur le public qui a vu les publicités et le contenu. Ces données peuvent être utilisées pour développer ou améliorer l'expérience de l'utilisateur, les systèmes et les logiciels.

En cliquant sur "J'accepte", vous autorisez l'utilisation de cookies, des identifiants d'appareils, des balises web ou d'autres technologies similaires. Vos paramètres peuvent être modifiés dans le navigateur de votre appareil.

Dans certains cas, des intérêts légitimes peuvent être invoqués plutôt qu'un consentement. Vous pouvez en savoir plus à ce sujet dans notre Politique de confidentialité et de cookies.